Location: Ceske Budejovice
(48.9830°N, 14.4670°E)
Time: 07:56:43
(UTC+02:00)

ISS - Pass Details

Date: 24 March 2019
Orbit: 408 x 410 km, 51.6° (Epoch: 25 April)

Event Time Altitude Azimuth Distance (km) Brightness Sun altitude
Rises 19:26:49 0° 232° (SW) 2,327 0.6 -11.5°
Reaches altitude 10° 19:28:55 10° 227° (SW) 1,468 -0.6 -11.9°
Maximum altitude 19:32:07 49° 151° (SSE) 536 -3.5 -12.4°
Enters shadow 19:34:02 21° 84° (E) 982 -2.4 -12.7°
